GSAT-10 (GAGAN/PRN 128)

Last updated on Oct. 25, 2020, 5:57 a.m. UTC

1 38779U 12051B   20298.82950380 -.00000180  00000-0  00000+0 0  9998
2 38779   0.0676  89.1430 0001887 151.4625 174.7294  1.00271962 29629
UTC
Height (km)
Latitude
Longitude
Inclination
Orbital Period
UTC large
Height (km)
Speed (km/s)
/
Latitude / Longitude
Inclination (degrees)
Orbital Period (minutes)
Azimuth
Elevation
Range (km)
Doppler Factor
iOS Compass Heading
iOS Angle

Next 30 passes for location: Hong Kong

Rise time Rise Azimuth (degrees) Set time Set Azimuth (degrees) Duration Max altitude (degrees)

No matching passes for this satellites